FENGYUN 1C DEB, 31182

Orbit data source: Space-Track

FENGYUN 1C DEB, 31182 is space debris in SSO originally from a launch on Mon, 10 May 1999 UTC launched from the Taiyaun Space Center, China (TSC). Fengyun 1C debris stems from the Chinese weather satellite Fengyun-1C, which was intentionally destroyed by a Chinese anti-satellite missile in 2007. This event dramatically increased the amount of space debris, with thousands of trackable fragments posing hazards to satellites and human spaceflight. The Fengyun 1C debris cloud has become a focal point in discussions about space sustainability and the need for international regulations to prevent the creation of new debris.

Loading next visibility...
Identifier
31182, 1999-025BJL
Orbit
SSO
Country
Flag of CNCN / PRC
Related business
Manufacturer
Unknown
Mission
Spacecraft
Bus & Motor
Unknown
Mass
Unknown
Launch date (UTC)
1999-05-10 (27 years ago)
Launch vehicle
Unknown
Launch site
Taiyaun Space Center, China (TSC)
Object type
Payload
Rocket body
Debris
Shape & HBR
Unknown shape, 0.1 m
Radar Cross Section
Small (<0.1 m²)

Expand to show TLE details & history
Last TLE update: 1 day ago

TLE from 1 day ago
0 FENGYUN 1C DEB
1 31182U 99025BJL 26105.94311082  .00000354  00000-0  20554-3 0  9993
2 31182  98.6939  96.4821 0023381 140.9394 250.0083 14.14748184978372
Epoch: 2026-04-15T22:38Z
TLE epoch observation values (Epoch: 2026-04-15T22:38:04.774Z)
Latitude
30.35912°
Longitude
-92.24705°
Altitude
852.782 km
Speed
7.426 km/s
True Right ascension
06h 05m 28s
True Declination
30° 12' 41"
Sunlit
Object was in daylight at epoch
Visualization orbit readout
Latitude
Unknown
Longitude
Unknown
Altitude
Unknown
Speed
Unknown
Apparent Right ascension
Unknown
Apparent Declination
Unknown
Sunlit
N/A
Visualization observer readout
Local Sidereal Time
15:57:19
Azimuth
Unknown
Elevation
Unknown
Doppler factor
Unknown
Orbital elements
Apogee altitude
857.211 km
Perigee altitude
823.456 km
Semi-major axis
7,218.471 km
Eccentricity
0.00234
Inclination
98.6939°
RAAN
96.4821°
Arg. of periapsis
140.9394°
True anomaly
249.75677°
Mean anomaly
250.0083°
Eccentric anomaly
249.88251°
Mean motion
3.53896 °/min
Orbital period
101.72 mins
BSTAR
0.00020554
Loading maneuver chart data...
Computing Atmospheric mass density...

Documentation

Showing up to 5 results
|